Lethbridge,

3:05 PM MDT on July 24, 2017 (GMT -0600)
Lethbridge

Weather History for CYQL - October, 2012

Change the Weather History Date:

Tuesday, October 30, 2012

  Actual Average Record
Temperature  
Mean Temperature 42 °F -  
Max Temperature 57 °F 46 °F 62 °F (1999)
Min Temperature 26 °F 23 °F -13 °F (2002)
Degree Days  
Heating Degree Days 24    
Moisture  
Dew Point 32 °F    
Average Humidity 79    
Maximum Humidity 93    
Minimum Humidity 43    
Precipitation  
Precipitation 0.00 in - - ()
Sea Level Pressure  
Sea Level Pressure 29.96 in    
Wind  
Wind Speed 10 mph ()    
Max Wind Speed 23 mph    
Max Gust Speed 34 mph    
Visibility 8.4 miles    
Events      
Averages and records for this station are not official NWS values.
T = Trace of Precipitation, MM = Missing Value Source: Averaged Metar Reports

Daily Weather History Graph

Daily Weather History Graph

Search for Another Location

Airport or City:

Trip Planner

Search our weather history database for the weather conditions in past years. The results will help you decide how hot, cold, wet, or windy it might be!

Date:

Astronomy

Oct. 30, 2012 Rise Set
Actual Time 8:17 AM MDT 6:11 PM MDT
Civil Twilight 7:44 AM MDT 6:44 PM MDT
Nautical Twilight 7:06 AM MDT 7:22 PM MDT
Astronomical Twilight 6:29 AM MDT 7:59 PM MDT
Moon 6:34 PM MDT (10/30) 9:15 AM MDT (10/30)
Length of Visible Light 11h 00m
Length of Day
9h 53m
Full, 99% of the Moon is Illuminated
Oct 30
Full
Nov 6
Last Quarter
Nov 13
New
Nov 20
First Quarter
Nov 28
Full

Hourly Weather History & Observations

Time (MDT) Temp. Windchill Dew Point Humidity Pressure Visibility Wind Dir Wind Speed Gust Speed Precip Events Conditions
12:00 AM 38 °F - 33 °F 75% 29.95 in 10 mi WSW 11.5 mph - -  
12:00 AM 37.4 °F 29.3 °F 33.8 °F 87% 29.95 in 9.0 mi WSW 12.7 mph - N/A   Clear
1:00 AM 35.6 °F 30.7 °F 32.0 °F 87% 29.96 in 9.0 mi SW 5.8 mph - N/A   Clear
1:20 AM 35.6 °F 27.1 °F 32.0 °F 87% 29.96 in 9.0 mi SSE 12.7 mph - N/A   Clear
2:00 AM 39.2 °F 32.0 °F 33.8 °F 81% 29.95 in 9.0 mi SW 11.5 mph - N/A   Clear
3:00 AM 35.6 °F - 32.0 °F 87% 29.96 in 9.0 mi Variable 2.3 mph - N/A   Clear
4:00 AM 35.6 °F 27.5 °F 30.2 °F 81% 29.94 in 9.0 mi SW 11.5 mph - N/A   Clear
5:00 AM 32.0 °F - 28.4 °F 87% 29.94 in 9.0 mi Variable 2.3 mph - N/A   Clear
5:47 AM 33.8 °F 24.3 °F 30.2 °F 87% 29.92 in 9.0 mi South 13.8 mph - N/A   Clear
6:00 AM 36 °F - 31 °F 73% 29.92 in 10 mi South 12.7 mph - -  
6:00 AM 35.6 °F 27.5 °F 30.2 °F 81% 29.92 in 15.0 mi South 11.5 mph - N/A   Scattered Clouds
7:00 AM 35.6 °F 28.6 °F 30.2 °F 81% 29.92 in 15.0 mi SSE 9.2 mph - N/A   Scattered Clouds
8:00 AM 37.4 °F 29.8 °F 32.0 °F 81% 29.89 in 25.0 mi South 11.5 mph - N/A   Overcast
9:00 AM 42.8 °F 35.1 °F 32.0 °F 66% 29.89 in 40.0 mi SW 16.1 mph - N/A   Mostly Cloudy
10:00 AM 46.4 °F 42.4 °F 35.6 °F 66% 29.88 in 40.0 mi SW 8.1 mph - N/A   Mostly Cloudy
11:00 AM 50.0 °F - 35.6 °F 58% 29.86 in 40.0 mi WSW 6.9 mph - N/A   Mostly Cloudy
12:00 PM 52 °F - 36 °F 43% 29.87 in 10 mi South 3.5 mph - -  
12:00 PM 51.8 °F - 35.6 °F 54% 29.87 in 40.0 mi SSE 2.3 mph - N/A   Mostly Cloudy
1:00 PM 53.6 °F - 39.2 °F 58% 29.84 in 40.0 mi SSE 6.9 mph - N/A   Mostly Cloudy
2:00 PM 51.8 °F - 39.2 °F 62% 29.84 in 40.0 mi NNW 5.8 mph - N/A   Mostly Cloudy
3:00 PM 55.4 °F - 37.4 °F 51% 29.83 in 40.0 mi West 23.0 mph 34.5 mph N/A   Mostly Cloudy
4:00 PM 42.8 °F 35.1 °F 33.8 °F 70% 29.93 in 40.0 mi North 16.1 mph - N/A   Mostly Cloudy
5:00 PM 32.0 °F 19.8 °F 30.2 °F 93% 29.99 in 10.0 mi North 20.7 mph 26.5 mph N/A   Overcast
5:28 PM 32.0 °F 19.8 °F 30.2 °F 93% 30.01 in 6.0 mi NNE 20.7 mph - N/A   Overcast
6:00 PM 31 °F - 29 °F 89% 30.04 in 7 mi North 15.0 mph - -   Overcast
6:00 PM 30.2 °F 19.3 °F 28.4 °F 93% 30.04 in 6.0 mi North 15.0 mph - N/A   Overcast
6:12 PM 30.2 °F 20.2 °F 28.4 °F 93% 30.05 in 5.0 mi North 12.7 mph 19.6 mph N/A   Overcast
7:00 PM 30.2 °F 19.8 °F 28.4 °F 93% 30.07 in 5.0 mi North 13.8 mph - N/A   Overcast
8:00 PM 28.4 °F 18.0 °F 26.6 °F 93% 30.10 in 6.0 mi North 12.7 mph - N/A   Overcast
9:00 PM 28.4 °F 17.5 °F 26.6 °F 93% 30.12 in 5.0 mi NNE 13.8 mph - N/A   Overcast
10:00 PM 26.6 °F 16.8 °F 24.8 °F 93% 30.13 in 5.0 mi NNE 10.4 mph - N/A   Overcast
11:00 PM 26.6 °F 17.5 °F 24.8 °F 93% 30.15 in 7.0 mi NNE 9.2 mph - N/A   Overcast